Overview Statistics Trail Chart Weather Telemetry Raw packets
 

This is the latest recevied weather packets stored in our database for station/object DL4SAV. If no packets are shown the sender has not sent any weather packets the latest 10 day(s).

<< 65 66 67 68 69 70 71 >>
Time Temp. Humidity Pressure Rain* Wind** Luminosity Snow
1788144698 15.56° C 87% 1014.8 hPa 1.52 mm - - -
1788144397 15.56° C 87% 1014.8 hPa 1.52 mm - - -
1788144097 15.56° C 87% 1015.2 hPa 1.52 mm - - -
1788143797 15.56° C 86% 1015 hPa 1.52 mm - - -
1788143497 15.56° C 86% 1014.6 hPa 1.02 mm - - -
1788143196 15.56° C 86% 1014.7 hPa 1.02 mm - - -
1788142896 15.56° C 86% 1015 hPa 1.02 mm - - -
1788142596 15.56° C 86% 1015 hPa 1.52 mm - - -
1788142295 15.56° C 86% 1015.2 hPa 1.02 mm - - -
1788141995 15.56° C 86% 1015.3 hPa 1.52 mm - - -
1788141695 15.56° C 85% 1015.3 hPa 2.03 mm - - -
1788141395 15.56° C 84% 1015.3 hPa 4.57 mm - - -
1788141094 15.56° C 84% 1015.4 hPa 4.57 mm - - -
1788140794 15.56° C 84% 1015.3 hPa 4.57 mm - - -
1788140494 15.56° C 84% 1015.2 hPa 4.57 mm - - -
1788140194 15.56° C 83% 1015.2 hPa 4.57 mm - - -
1788139893 15.56° C 83% 1015.4 hPa 4.57 mm - - -
1788139593 16.11° C 81% 1015.3 hPa 4.57 mm - - -
1788139293 16.11° C 81% 1015.3 hPa 4.06 mm - - -
1788138992 16.11° C 80% 1015.5 hPa 4.06 mm - - -
1788138692 16.67° C 79% 1015.5 hPa 4.06 mm - - -
1788138392 17.22° C 78% 1015.6 hPa 3.56 mm - - -
1788138091 17.78° C 79% 1015.6 hPa 0 mm - - -
1788137791 17.78° C 78% 1014.3 hPa 0 mm - - -
1788137491 17.78° C 78% 1014.1 hPa 0 mm - - -

* Rain latest hour (hover to see other rain measurements)
** Current wind speed in m/s (hover to see current wind gust speed)